| time (UTC) | temp C | wind direction | speed KPH | gust KPH | rain 1hr cm | rain 24hr cm | rain mn cm | humidity % | barometer mb |
| 20260507113041 | 4 | 212 | 6.4 | 9.7 | 0.00 | 0.18 | 0.00 | 82 | 1013.0 |
| 20260507111545 | 4 | 212 | 4.8 | 9.7 | 0.00 | 0.18 | 0.00 | 84 | 1012.9 |
| 20260507110046 | 3 | 212 | 4.8 | 6.4 | 0.00 | 0.18 | 0.00 | 85 | 1012.5 |
| 20260507104543 | 3 | 212 | 3.2 | 6.4 | 0.00 | 0.41 | 0.00 | 85 | 1012.5 |
| 20260507103045 | 3 | 212 | 4.8 | 8.0 | 0.00 | 0.41 | 0.00 | 85 | 1012.3 |
| 20260507101548 | 3 | 209 | 4.8 | 9.7 | 0.00 | 0.41 | 0.00 | 84 | 1012.4 |
| 20260507100050 | 3 | 211 | 6.4 | 9.7 | 0.00 | 0.41 | 0.00 | 84 | 1012.3 |
| 20260507094555 | 2 | 211 | 6.4 | 9.7 | 0.00 | 0.51 | 0.00 | 85 | 1012.1 |
| 20260507093043 | 2 | 211 | 4.8 | 9.7 | 0.00 | 0.51 | 0.00 | 86 | 1012.1 |
| 20260507091542 | 2 | 210 | 6.4 | 8.0 | 0.00 | 0.51 | 0.00 | 85 | 1012.4 |
| 20260507090042 | 2 | 218 | 3.2 | 6.4 | 0.00 | 0.51 | 0.00 | 85 | 1012.2 |
| 20260507084544 | 3 | 213 | 4.8 | 9.7 | 0.00 | 0.66 | 0.00 | 86 | 1012.3 |
| 20260507083052 | 3 | 213 | 4.8 | 9.7 | 0.00 | 0.66 | 0.00 | 86 | 1012.3 |
| 20260507081543 | 3 | 209 | 4.8 | 9.7 | 0.00 | 0.66 | 0.00 | 86 | 1012.2 |
| 20260507080053 | 3 | 209 | 4.8 | 8.0 | 0.00 | 0.66 | 0.00 | 84 | 1012.3 |
| 20260507074552 | 5 | 221 | 4.8 | 11.3 | 0.00 | 0.91 | 0.00 | 84 | 1012.3 |
| 20260507073049 | 5 | 281 | 9.7 | 19.3 | 0.00 | 0.91 | 0.00 | 86 | 1012.6 |
| 20260507071546 | 5 | 275 | 9.7 | 14.5 | 0.00 | 0.91 | 0.00 | 84 | 1012.5 |
| 20260507070054 | 5 | 242 | 6.4 | 11.3 | 0.00 | 0.91 | 0.00 | 80 | 1012.4 |
| 20260507064550 | 6 | 221 | 6.4 | 19.3 | 0.00 | 1.19 | 0.00 | 75 | 1012.3 |
| 20260507063046 | 6 | 300 | 16.1 | 20.9 | 0.00 | 1.19 | 0.00 | 77 | 1012.1 |
| 20260507061548 | 6 | 296 | 14.5 | 22.5 | 0.00 | 1.19 | 0.00 | 77 | 1012.1 |
| 20260507060048 | 6 | 295 | 19.3 | 25.7 | 0.00 | 1.19 | 0.00 | 75 | 1012.4 |
| 20260507054546 | 6 | 293 | 20.9 | 27.4 | 0.00 | 1.42 | 0.00 | 76 | 1012.6 |
| 20260507053044 | 6 | 291 | 20.9 | 30.6 | 0.00 | 1.42 | 0.00 | 76 | 1012.6 |
| 20260507051544 | 6 | 287 | 20.9 | 29.0 | 0.00 | 1.42 | 0.00 | 76 | 1012.7 |
| 20260507050046 | 6 | 295 | 22.5 | 30.6 | 0.00 | 1.42 | 0.00 | 77 | 1012.8 |
| 20260507044555 | 6 | 290 | 19.3 | 25.7 | 0.00 | 1.55 | 0.00 | 79 | 1012.7 |
| 20260507043048 | 6 | 290 | 20.9 | 27.4 | 0.00 | 1.55 | 0.00 | 79 | 1012.6 |
| 20260507041547 | 7 | 302 | 20.9 | 27.4 | 0.00 | 1.55 | 0.00 | 85 | 1012.5 |
| 20260507040048 | 7 | 284 | 20.9 | 30.6 | 0.00 | 1.55 | 0.00 | 89 | 1012.5 |
| 20260507034547 | 6 | 300 | 19.3 | 25.7 | 0.00 | 1.57 | 1.55 | 91 | 1012.5 |
| 20260507033100 | 6 | 286 | 16.1 | 22.5 | 0.00 | 1.57 | 1.55 | 92 | 1012.3 |
| 20260507031555 | 6 | 284 | 14.5 | 19.3 | 0.00 | 1.57 | 1.55 | 93 | 1012.2 |
| 20260507024602 | 6 | 265 | 12.9 | 17.7 | 0.00 | 1.65 | 1.55 | 93 | 1012.1 |
| 20260507023043 | 5 | 276 | 9.7 | 16.1 | 0.00 | 1.65 | 1.55 | 92 | 1012.3 |
| 20260507021552 | 5 | 263 | 9.7 | 12.9 | 0.00 | 1.65 | 1.55 | 92 | 1012.3 |
| 20260507020056 | 5 | 243 | 8.0 | 14.5 | 0.00 | 1.65 | 1.55 | 92 | 1012.3 |
| 20260507014552 | 6 | 298 | 14.5 | 22.5 | 0.00 | 1.70 | 1.55 | 93 | 1012.2 |
| 20260507013042 | 5 | 302 | 16.1 | 25.7 | 0.00 | 1.70 | 1.55 | 92 | 1012.4 |
| 20260507011548 | 5 | 305 | 22.5 | 27.4 | 0.00 | 1.70 | 1.55 | 91 | 1012.2 |
| 20260507010047 | 5 | 315 | 20.9 | 25.7 | 0.00 | 1.70 | 1.55 | 90 | 1012.1 |
| 20260507004545 | 6 | 329 | 19.3 | 25.7 | 0.00 | 1.80 | 1.55 | 87 | 1011.7 |
| 20260507003045 | 6 | 329 | 9.7 | 14.5 | 0.00 | 1.80 | 1.55 | 87 | 1011.7 |
| 20260507001547 | 6 | 45 | 1.6 | 4.8 | 0.00 | 1.80 | 1.55 | 85 | 1011.2 |
| 20260507000049 | 6 | 0 | 1.6 | 6.4 | 0.00 | 1.80 | 1.55 | 85 | 1011.1 |
| 20260506234554 | 7 | 45 | 3.2 | 6.4 | 0.00 | 1.91 | 1.55 | 86 | 1011.1 |
| 20260506233050 | 7 | 45 | 4.8 | 9.7 | 0.00 | 1.91 | 1.55 | 86 | 1010.8 |
| 20260506231552 | 7 | 53 | 4.8 | 9.7 | 0.00 | 1.91 | 1.55 | 85 | 1010.7 |
| 20260506230041 | 7 | 84 | 0.0 | 4.8 | 0.00 | 1.91 | 1.55 | 85 | 1010.3 |
| 20260506224545 | 7 | 84 | 1.6 | 4.8 | 0.00 | 1.96 | 1.55 | 84 | 1009.9 |
| 20260506223045 | 7 | 84 | 3.2 | 6.4 | 0.00 | 1.96 | 1.55 | 84 | 1009.7 |
| 20260506221542 | 7 | 0 | 1.6 | 4.8 | 0.00 | 1.96 | 1.55 | 83 | 1009.9 |
| 20260506220051 | 7 | 0 | 0.0 | 0.0 | 0.00 | 1.96 | 1.55 | 83 | 1010.0 |
| 20260506214549 | 7 | 0 | 0.0 | 0.0 | 0.00 | 1.96 | 1.55 | 82 | 1010.2 |
| 20260506213047 | 7 | 0 | 0.0 | 3.2 | 0.00 | 1.96 | 1.55 | 82 | 1010.1 |
| 20260506211544 | 7 | 329 | 3.2 | 6.4 | 0.00 | 1.96 | 1.55 | 83 | 1010.1 |
| 20260506210048 | 7 | 0 | 0.0 | 3.2 | 0.00 | 1.96 | 1.55 | 85 | 1009.9 |
| 20260506204543 | 6 | 0 | 0.0 | 3.2 | 0.00 | 1.96 | 1.55 | 85 | 1010.0 |
| 20260506203042 | 7 | 329 | 0.0 | 4.8 | 0.00 | 1.96 | 1.55 | 86 | 1010.0 |
| 20260506201545 | 7 | 329 | 3.2 | 6.4 | 0.00 | 1.96 | 1.55 | 87 | 1010.1 |
| 20260506200044 | 6 | 329 | 1.6 | 6.4 | 0.00 | 1.96 | 1.55 | 87 | 1010.1 |
| 20260506194543 | 6 | 329 | 3.2 | 6.4 | 0.00 | 1.96 | 1.55 | 88 | 1010.0 |
| 20260506193048 | 6 | 329 | 0.0 | 6.4 | 0.00 | 1.96 | 1.55 | 89 | 1010.0 |
| 20260506191550 | 6 | 329 | 4.8 | 8.0 | 0.00 | 1.96 | 1.55 | 90 | 1010.1 |
| 20260506190049 | 6 | 329 | 4.8 | 8.0 | 0.00 | 1.96 | 1.55 | 91 | 1010.1 |
| 20260506184548 | 6 | 329 | 3.2 | 9.7 | 0.00 | 1.96 | 1.55 | 92 | 1010.1 |
| 20260506183048 | 6 | 333 | 6.4 | 14.5 | 0.00 | 1.96 | 1.55 | 93 | 1010.0 |
| 20260506181545 | 5 | 327 | 9.7 | 16.1 | 0.00 | 1.96 | 1.55 | 94 | 1010.2 |
| 20260506180043 | 5 | 339 | 12.9 | 17.7 | 0.00 | 1.96 | 1.55 | 94 | 1010.2 |
| 20260506174545 | 5 | 337 | 9.7 | 16.1 | 0.00 | 1.96 | 1.55 | 94 | 1010.0 |
| 20260506173122 | 5 | 346 | 8.0 | 12.9 | 0.00 | 1.96 | 1.55 | 95 | 1009.7 |
| 20260506171545 | 5 | 15 | 6.4 | 12.9 | 0.00 | 1.96 | 1.55 | 95 | 1009.5 |
| 20260506170046 | 5 | 34 | 6.4 | 14.5 | 0.00 | 1.96 | 1.55 | 95 | 1009.4 |
| 20260506164548 | 5 | 355 | 11.3 | 17.7 | 0.00 | 1.96 | 1.55 | 95 | 1009.6 |
| 20260506163044 | 5 | 5 | 11.3 | 16.1 | 0.00 | 1.96 | 1.55 | 95 | 1009.4 |
| 20260506161558 | 5 | 19 | 11.3 | 16.1 | 0.03 | 1.96 | 1.55 | 95 | 1009.5 |
| 20260506160047 | 5 | 32 | 11.3 | 16.1 | 0.03 | 1.96 | 1.55 | 95 | 1009.4 |
| 20260506154550 | 5 | 30 | 12.9 | 16.1 | 0.03 | 1.96 | 1.55 | 96 | 1009.4 |
| 20260506153051 | 5 | 36 | 11.3 | 17.7 | 0.03 | 1.96 | 1.55 | 95 | 1009.3 |
| 20260506151548 | 5 | 30 | 14.5 | 19.3 | 0.00 | 1.93 | 1.52 | 95 | 1009.4 |
| 20260506150045 | 5 | 28 | 14.5 | 17.7 | 0.00 | 1.93 | 1.52 | 95 | 1009.2 |
| 20260506144545 | 5 | 42 | 14.5 | 20.9 | 0.03 | 1.93 | 1.52 | 95 | 1009.0 |
| 20260506143045 | 5 | 57 | 12.9 | 17.7 | 0.03 | 1.93 | 1.52 | 95 | 1008.9 |
| 20260506141546 | 5 | 44 | 11.3 | 17.7 | 0.05 | 1.93 | 1.52 | 95 | 1008.9 |
| 20260506140045 | 5 | 57 | 9.7 | 16.1 | 0.05 | 1.93 | 1.52 | 95 | 1009.0 |
| 20260506134549 | 5 | 43 | 8.0 | 14.5 | 0.03 | 1.91 | 1.47 | 95 | 1008.9 |
| 20260506133041 | 6 | 77 | 8.0 | 16.1 | 0.05 | 1.91 | 1.47 | 95 | 1008.8 |
| 20260506131552 | 6 | 82 | 9.7 | 17.7 | 0.03 | 1.88 | 1.47 | 95 | 1008.8 |
| 20260506130100 | 6 | 76 | 6.4 | 12.9 | 0.05 | 1.88 | 1.47 | 95 | 1008.8 |
| 20260506124553 | 6 | 72 | 6.4 | 16.1 | 0.08 | 1.88 | 1.47 | 95 | 1008.8 |
| 20260506123047 | 6 | 80 | 8.0 | 14.5 | 0.05 | 1.85 | 1.45 | 95 | 1008.7 |
| 20260506121541 | 6 | 92 | 9.7 | 17.7 | 0.08 | 1.85 | 1.45 | 95 | 1008.7 |
| 20260506120042 | 6 | 88 | 8.0 | 19.3 | 0.05 | 1.83 | 1.42 | 95 | 1009.0 |
| 20260506114546 | 6 | 103 | 8.0 | 17.7 | 0.08 | 1.80 | 1.40 | 95 | 1008.6 |